Hourly Weather Roundup
Issued by NWS Central Illinois

Home | Current Version | Previous Version | Text Only | Print | Product List | Glossary On
Versions: 1 2 3 4 5 6 7 8 9 10 11 12 13 14 15 16 17 18 19 20 21 22 23 24 25 26 27 28 29 30 31 32 33 34 35 36 37 38 39 40 41 42 43 44 45 46 47 48 49 50
000
NZUS43 KILX 310110
HWRILX

AREA WEATHER ROUNDUP
NATIONAL WEATHER SERVICE, LINCOLN IL
700 PM CST FRI JAN 30 2015


CITY           SKY/WX    TMP DP  RH WIND       PRES   REMARKS
BLOOMINGTON    CLEAR     26  20  78 SW5       30.44S WCI  20
CHAMPAIGN      CLEAR     26  20  77 CALM      30.45S
DECATUR        CLEAR     30  20  66 CALM      30.46S
FLORA          CLEAR     31  21  65 CALM      30.49R
GALESBURG      CLEAR     26  21  84 S3        30.41F
JACKSONVILLE   CLEAR     29  19  64 CALM      30.45F
LACON          CLEAR     22  17  82 CALM      30.44S
LAWRENCEVILLE  CLEAR     29  19  66 NW5       30.49R WCI  24
LITCHFIELD     CLEAR     28  20  73 E3        30.46S
$$


CITY           SKY/WX    TMP DP  RH WIND       PRES   REMARKS
LINCOLN        CLEAR     28  22  77 CALM      30.47S
MACOMB         CLEAR     28  24  82 SW3       30.45F
MATTOON        CLEAR     27  18  69 CALM      30.45S
MT CARMEL AP   CLEAR     32  23  69 N5        30.48S WCI  27
OLNEY-NOBLE AP CLEAR     28  23  80 CALM      30.49R
PARIS          CLEAR     28  24  85 CALM      30.47S
PEORIA         CLEAR     28  17  63 S3        30.44F
PONTIAC        CLEAR     27  25  92 CALM      30.44F
RANTOUL        CLEAR     28  23  81 CALM      30.44S
ROBINSON       CLEAR     28  20  73 CALM      30.49R
SPRINGFIELD    CLEAR     25  19  78 S5        30.45F WCI  19
TAYLORVILLE    CLEAR     28  21  74 S3        30.46F
$$

...REGIONAL REPORTS...


CITY           SKY/WX    TMP DP  RH WIND       PRES   REMARKS
CHICAGO O`HARE PTCLDY    23  11  60 W6        30.41F WCI  16
KANKAKEE       CLEAR     26  20  80 CALM      30.45S
MOLINE         CLEAR     24  18  77 CALM      30.41F
MOUNT VERNON   CLEAR     27  18  69 CALM      30.47S
PITTSFIELD     CLEAR     30  20  65 CALM      30.46S
QUINCY         CLEAR     27  15  61 S3        30.43F
ROCKFORD       PTCLDY    22  12  65 SW6       30.43S WCI  14
$$


CITY           SKY/WX    TMP DP  RH WIND       PRES   REMARKS
BURLINGTON     CLEAR     27  18  69 S6        30.40F WCI  20
CEDAR RAPIDS   CLEAR     23  15  71 S3        30.36F
DES MOINES     FAIR      30  15  53 S7        30.35F WCI  23
KIRKSVILLE     CLEAR     26  18  71 S6        30.41F WCI  19
OTTUMWA        CLEAR     26  15  63 SE3       30.38F
ST LOUIS       MOCLDY    34  19  54 CALM      30.46S
$$


CITY           SKY/WX    TMP DP  RH WIND       PRES   REMARKS
TERRE HAUTE    CLEAR     27  19  72 CALM      30.46S
EVANSVILLE     CLEAR     32  21  64 NW5       30.49R WCI  27
INDIANAPOLIS   CLEAR     24  15  68 CALM      30.44S
LAFAYETTE      CLEAR     24  17  74 CALM      30.45S
MADISON        CLEAR     20   9  62 SW3       30.37F
MILWAUKEE      MOCLDY    24   8  50 W7        30.40S WCI  16
$$





USA.gov is the U.S. government's official web portal to all federal, state and local government web resources and services.